Location: Clanezzo
(45.7500°N, 9.6000°E)
Time: 03:25:48
(UTC+00:00)

N. Korean satellite - Visible Passes

Search period start: 27 January 2022 00:00
Search period end: 06 February 2022 00:00
Orbit: 447 x 490 km, 97.3° (Epoch: 26 January)

Date Brightness Start Highest point End Pass type
(mag) Time Alt. Az. Time Alt. Az. Time Alt. Az.
27 Jan 9.3 03:45:30 10° NE 03:48:05 18° E 03:48:42 17° ESE visible
27 Jan 7.2 05:18:00 10° N 05:21:18 33° WNW 05:22:45 24° WSW visible
28 Jan 6.4 04:48:32 10° N 04:52:11 76° WNW 04:53:41 33° SSW visible
28 Jan 10.1 17:00:02 10° WSW 17:01:07 11° W 17:02:13 10° WNW visible
29 Jan 7.6 04:19:24 10° NNE 04:22:55 45° E 04:24:39 25° SSE visible
29 Jan 8.3 05:53:39 10° NNW 05:55:40 14° WNW 05:57:42 10° W visible
30 Jan 9.1 03:50:43 10° NE 03:53:31 21° E 03:55:38 13° SE visible
30 Jan 7.4 05:23:29 10° N 05:26:40 28° WNW 05:29:42 11° SW visible
31 Jan 6.5 04:53:54 10° N 04:57:31 64° WNW 05:00:47 12° SSW visible
01 Feb 7.3 04:24:39 10° NNE 04:28:13 53° E 04:31:45 10° S visible
01 Feb 8.4 05:59:16 10° NW 06:00:55 13° WNW 06:02:33 10° W visible
02 Feb 8.9 03:55:49 10° NE 03:58:48 23° E 04:01:44 10° SSE visible
02 Feb 7.6 05:28:51 10° NNW 05:31:53 25° WNW 05:34:52 10° SW visible
03 Feb 9.9 03:28:11 10° ENE 03:29:14 11° E 03:30:16 10° ESE visible
03 Feb 6.6 04:59:08 10° N 05:02:42 55° WNW 05:06:13 10° SSW visible
04 Feb 7.0 04:29:47 10° NNE 04:33:24 62° E 04:36:57 10° S visible
04 Feb 8.6 06:04:54 10° NW 06:06:00 11° WNW 06:07:05 10° W visible
05 Feb 8.7 04:00:49 10° NE 04:03:57 27° E 04:07:01 10° SSE visible
05 Feb 7.8 05:34:05 10° NNW 05:36:57 22° WNW 05:39:46 10° WSW visible
